Starlink 31846

operational
NORAD ID: 60126 Int'l Des: 2024-118 Owner: SPXS Country: US Constellation: starlink
LEOCIRCULAR

About Starlink 31846

Description loading...

Live Position

Loading 3D Globe...

Upcoming Passes

Altitude History

Altitude vs Time

uPlot chart will show altitude changes over time

Two-Line Element Set

1 60126U 24118P 26095.18683853 .00013337 00000-0 46141-3 0 9991
2 60126 53.1611 263.6106 0000765 44.7951 315.3111 15.30213336 99758
Epoch: Apr 5, 2026 • Age: 7 hours

Current Status

Altitude 493.7 km
Velocity 7.62 km/s
Sub-Earth Point -52.18°S, 143.75°E
Launch Date Jun 24, 2024
Age 1.7 years
Type internet

Technical Details

Classification Payload
Mass 730.00 kg
Dry Mass 700.00 kg
Total Mass 730.00 kg
Length 0.30 m
Diameter 4.10 m
Span 29.00 m
Shape Box + pan
Manufacturer SPXS
Bus Type Starlink V2M
Phase Status In Orbit
Owner/State SPXS/US

Large Constellations

Loading constellations...